FW4185 Weather Reports


time (UTC)temp
C
wind
direction
speed
KPH
gust
KPH
rain 1hr
cm
rain 24hr
cm
rain mn
cm
humidity
%
barometer
mb
20260509212813 15 354 1.6 8.0 0.00 0.00 0.00 60 1002.7
20260509212131 15 356 0.0 9.7 0.00 0.00 0.00 64 1002.7
20260509211452 13 358 3.2 11.3 0.00 0.00 0.00 66 1003.1
20260509210812 -17 355 0.0 0.0 0.00 0.00 0.00
20260509210022 -17 356 0.0 0.0 0.00 0.00 0.00
20260509205124 15 357 0.0 9.7 0.00 0.00 0.00 63 1003.2
20260509204445 -17 353 3.2 3.2 0.00 0.00 0.00
20260509203658 -17 359 0.0 0.0 0.00 0.00 0.00
20260509202751 13 356 0.0 0.0 0.00 0.00 0.00 67 1003.0
20260509202110 13 356 0.0 0.0 0.00 0.00 0.00 67 1003.2
20260509201431 13 357 0.0 0.0 0.00 0.00 0.00 67 1003.3
20260509200751 15 353 0.0 0.0 0.00 0.00 0.00 64 1003.4
20260509200110 15 357 0.0 0.0 0.00 0.00 0.00 63 1003.5
20260509195430 15 355 0.0 0.0 0.00 0.00 0.00 65 1003.4
20260509194751 15 353 0.0 9.7 0.00 0.00 0.00 66 1003.4
20260509194110 15 355 3.2 11.3 0.00 0.00 0.00 65 1003.5
20260509193431 15 350 4.8 11.3 0.00 0.00 0.00 67 1003.6
20260509192637 15 356 0.0 0.0 0.00 0.00 0.00 65 1003.8
20260509191959 15 356 0.0 9.7 0.00 0.00 0.00 64 1003.9
20260509191318 15 356 4.8 12.9 0.00 0.00 0.00 63 1004.0
20260509190638 14 354 6.4 12.9 0.00 0.00 0.00 66 1004.1
20260509185957 15 356 4.8 14.5 0.00 0.00 0.00 64 1004.1
20260509185318 15 355 9.7 14.5 0.00 0.00 0.00 64 1004.2
20260509184638 -17 352 9.7 11.3 0.00 0.00 0.00
20260509183742 15 357 6.4 12.9 0.00 0.00 0.00 63 1004.1
20260509183102 -17 356 6.4 9.7 0.00 0.00 0.00
20260509182312 -17 355 9.7 6.4 0.00 0.00 0.00
20260509181524 14 356 6.4 12.9 0.00 0.00 0.00 65 1004.5
20260509180843 15 354 0.0 0.0 0.00 0.00 0.00 63 1004.5
20260509180203 15 356 0.0 0.0 0.00 0.00 0.00 63 1004.6
20260509175523 -17 356 0.0 11.3 0.00 0.00 0.00
20260509174622 14 354 6.4 11.3 0.00 0.00 0.00 66 1004.9
20260509173942 15 357 0.0 0.0 0.00 0.00 0.00 64 1005.2
20260509173301 14 355 0.0 0.0 0.00 0.00 0.00 66 1005.1
20260509172621 15 353 0.0 11.3 0.00 0.00 0.00 65 1005.1
20260509171946 15 357 0.0 9.7 0.00 0.00 0.00 62 1005.1
20260509171302 -17 0 6.4 6.4 0.00 0.00 0.00
20260509170501 14 358 8.0 16.1 0.00 0.00 0.00 65 1005.2
20260509165821 15 354 3.2 11.3 0.00 0.00 0.00 64 1005.2
20260509165146 15 359 1.6 12.9 0.00 0.00 0.00 63 1005.1
20260509164502 15 357 4.8 12.9 0.00 0.00 0.00 65 1005.3
20260509163823 -17 357 0.0 0.0 0.00 0.00 0.00
20260509163035 -17 354 0.0 12.9 0.00 0.00 0.00
20260509162135 15 355 8.0 12.9 0.00 0.00 0.00 61 1005.4
20260509161456 15 355 0.0 0.0 0.00 0.00 0.00 62 1005.4
20260509160817 -17 354 0.0 0.0 0.00 0.00 0.00
20260509160026 15 356 0.0 0.0 0.00 0.00 0.00 62 1005.4
20260509155346 15 357 0.0 0.0 0.00 0.00 0.00 62 1005.5
20260509154705 15 357 0.0 6.4 0.00 0.00 0.00 62 1005.6
20260509154026 -17 350 0.0 9.7 0.00 0.00 0.00
20260509153201 15 357 0.0 0.0 0.00 0.00 0.00 63 1005.7
20260509152521 14 356 0.0 0.0 0.00 0.00 0.00 64 1005.7
20260509151841 14 356 0.0 0.0 0.00 0.00 0.00 63 1005.7
20260509151201 14 356 0.0 0.0 0.00 0.00 0.00 65 1005.7
20260509150521 13 356 0.0 0.0 0.00 0.00 0.00 64 1005.7
20260509145841 15 357 0.0 0.0 0.00 0.00 0.00 62 1005.6
20260509145202 13 357 0.0 8.0 0.00 0.00 0.00 66 1005.7
20260509144521 15 357 0.0 6.4 0.00 0.00 0.00 62 1005.8
20260509143841 13 357 0.0 9.7 0.00 0.00 0.00 65 1005.8
20260509143201 -17 356 0.0 9.7 0.00 0.00 0.00
20260509142258 13 352 3.2 16.1 0.00 0.00 0.00 61 1005.8
20260509141618 13 356 8.0 16.1 0.00 0.00 0.00 62 1005.9
20260509140937 13 357 6.4 16.1 0.00 0.00 0.00 64 1006.0
20260509140258 13 356 11.3 16.1 0.00 0.00 0.00 65 1006.1
20260509135618 13 355 6.4 16.1 0.00 0.00 0.00 65 1006.1
20260509134938 13 355 6.4 16.1 0.00 0.00 0.00 65 1006.0
20260509134258 14 357 8.0 16.1 0.00 0.00 0.00 66 1006.1
20260509133619 13 355 8.0 16.1 0.00 0.00 0.00 67 1006.1
20260509132939 -17 355 12.9 12.9 0.00 0.00 0.00
20260509132151 13 356 8.0 17.7 0.00 0.00 0.00 68 1006.2
20260509131510 13 357 4.8 9.7 0.00 0.00 0.00 68 1006.3
20260509130718 -17 355 14.5 12.9 0.00 0.00 0.00
20260509125926 12 357 12.9 16.1 0.00 0.00 0.00 69 1006.4
20260509125248 -17 353 9.7 12.9 0.00 0.00 0.00
20260509124457 12 356 11.3 22.5 0.00 0.00 0.00 68 1006.4
20260509123818 12 356 12.9 17.7 0.00 0.00 0.00 69 1006.5
20260509123138 12 358 12.9 17.7 0.00 0.00 0.00 70 1006.5
20260509122457 12 358 11.3 16.1 0.00 0.00 0.00 70 1006.5
20260509121817 12 355 6.4 16.1 0.00 0.00 0.00 72 1006.6
20260509121137 -17 357 11.3 3.2 0.00 0.00 0.00
20260509120344 12 353 8.0 14.5 0.00 0.00 0.00 73 1006.7
20260509115704 11 357 4.8 12.9 0.00 0.00 0.00 72 1006.7
20260509115024 -17 356 6.4 6.4 0.00 0.00 0.00
20260509114233 -17 355 4.8 4.8 0.00 0.00 0.00
20260509113335 11 355 8.0 16.1 0.00 0.00 0.00 74 1006.7
20260509112653 11 356 4.8 14.5 0.00 0.00 0.00 74 1006.6
20260509112014 10 356 4.8 14.5 0.00 0.00 0.00 74 1006.7
20260509111333 10 356 8.0 12.9 0.00 0.00 0.00 75 1006.8
20260509110656 10 355 6.4 12.9 0.00 0.00 0.00 75 1006.8
20260509110014 -17 357 6.4 6.4 0.00 0.00 0.00
20260509105111 10 357 6.4 14.5 0.00 0.00 0.00 75 1006.7
20260509104431 10 356 8.0 14.5 0.00 0.00 0.00 75 1006.7
20260509103751 -17 356 6.4 14.5 0.00 0.00 0.00
20260509103001 10 357 4.8 11.3 0.00 0.00 0.00 75 1006.7
20260509102320 9 356 3.2 11.3 0.00 0.00 0.00 76 1006.8
20260509101641 9 355 4.8 11.3 0.00 0.00 0.00 77 1006.7
20260509101002 9 355 6.4 9.7 0.00 0.00 0.00 77 1006.7
20260509100321 -17 357 0.0 8.0 0.00 0.00 0.00
20260509095530 8 356 3.2 8.0 0.00 0.00 0.00 76 1006.7
20260509094850 9 358 3.2 9.7 0.00 0.00 0.00 76 1006.6
20260509094210 9 357 3.2 3.2 0.00 0.00 0.00 76 1006.6
20260509093421 9 356 4.8 9.7 0.00 0.00 0.00 76 1006.6
20260509092746 9 357 3.2 11.3 0.00 0.00 0.00 75 1006.6
20260509092100 9 356 3.2 11.3 0.00 0.00 0.00 75 1006.6
20260509091421 9 357 6.4 11.3 0.00 0.00 0.00 74 1006.7
20260509090740 9 356 3.2 9.7 0.00 0.00 0.00 74 1006.7
20260509085158 -17 355 6.4 11.3 0.00 0.00 0.00
20260509084407 -17 358 3.2 8.0 0.00 0.00 0.00
20260509083618 9 357 4.8 12.9 0.00 0.00 0.00 71 1006.8
20260509082938 -17 359 4.8 9.7 0.00 0.00 0.00
20260509081930 -17 357 0.0 6.4 0.00 0.00 0.00
20260509081137 -17 356 0.0 12.9 0.00 0.00 0.00
20260509080347 9 357 6.4 12.9 0.00 0.00 0.00 70 1006.8
20260509075708 9 357 3.2 12.9 0.00 0.00 0.00 69 1006.9
20260509075027 -17 357 11.3 11.3 0.00 0.00 0.00
20260509074237 8 357 4.8 9.7 0.00 0.00 0.00 67 1007.1
20260509073557 8 356 4.8 9.7 0.00 0.00 0.00 67 1007.2
20260509072917 8 357 3.2 9.7 0.00 0.00 0.00 65 1007.3
20260509072236 8 357 0.0 0.0 0.00 0.00 0.00 64 1007.2
20260509071556 8 359 0.0 0.0 0.00 0.00 0.00 63 1007.4
20260509070918 8 359 0.0 9.7 0.00 0.00 0.00 62 1007.4
20260509070236 8 357 6.4 11.3 0.00 0.00 0.00 64 1007.4
20260509065556 8 358 1.6 9.7 0.00 0.00 0.00 62 1007.4
20260509064917 8 357 4.8 11.3 0.00 0.00 0.00 62 1007.5
20260509064236 8 356 6.4 14.5 0.00 0.00 0.00 61 1007.5
20260509063557 -17 355 8.0 4.8 0.00 0.00 0.00
20260509062806 8 358 0.0 0.0 0.00 0.00 0.00 59 1007.5
20260509062126 8 357 0.0 0.0 0.00 0.00 0.00 59 1007.7
20260509061446 8 358 0.0 0.0 0.00 0.00 0.00 58 1007.8
20260509060805 7 357 0.0 9.7 0.00 0.00 0.00 56 1007.9
20260509060127 7 357 1.6 9.7 0.00 0.00 0.00 55 1007.9
20260509055447 7 358 0.0 0.0 0.00 0.00 0.00 55 1008.1
20260509054807 -17 357 0.0 0.0 0.00 0.00 0.00
20260509053906 -17 359 0.0 0.0 0.00 0.00 0.00
20260509053009 7 358 0.0 0.0 0.00 0.00 0.00 55 1008.4
20260509052328 7 357 0.0 0.0 0.00 0.00 0.00 56 1008.4
20260509051648 7 356 0.0 0.0 0.00 0.00 0.00 54 1008.5
20260509051008 7 357 0.0 8.0 0.00 0.00 0.00 55 1008.5
20260509050329 -17 357 0.0 9.7 0.00 0.00 0.00
20260509045542 -17 357 1.6 12.9 0.00 0.00 0.00
20260509044642 7 358 6.4 11.3 0.00 0.00 0.00 52 1008.7
20260509044002 -17 357 3.2 6.4 0.00 0.00 0.00
20260509043211 7 357 8.0 14.5 0.00 0.00 0.00 52 1008.7
20260509042532 -17 354 9.7 8.0 0.00 0.00 0.00
20260509041632 7 358 1.6 9.7 0.00 0.00 0.00 54 1008.9
20260509040952 -17 356 1.6 8.0 0.00 0.00 0.00
20260509040201 7 357 1.6 6.4 0.00 0.00 0.00 54 1009.1
20260509035521 7 358 0.0 9.7 0.00 0.00 0.00 54 1009.1
20260509034841 -17 357 3.2 11.3 0.00 0.00 0.00
20260509034052 7 356 3.2 9.7 0.00 0.00 0.00 52 1009.3
20260509033412 7 357 1.6 9.7 0.00 0.00 0.00 51 1009.4
20260509032732 7 356 3.2 9.7 0.00 0.00 0.00 51 1009.4
20260509032054 -17 356 0.0 9.7 0.00 0.00 0.00
20260509031302 7 357 0.0 0.0 0.00 0.00 0.00 52 1009.6
20260509025829 7 358 0.0 0.0 0.00 0.00 0.20 51 1009.7
20260509025151 8 358 0.0 4.8 0.00 0.00 0.20 51 1009.7
20260509024510 8 357 0.0 9.7 0.00 0.00 0.20 50 1009.7
20260509023830 8 358 0.0 8.0 0.00 0.00 0.20 53 1009.7
20260509022821 8 356 0.0 6.4 0.00 0.00 0.20 45 1009.7
20260509022141 9 357 0.0 0.0 0.00 0.00 0.20 44 1009.6
20260509021501 9 358 0.0 0.0 0.00 0.00 0.20 42 1009.6
20260509020820 9 357 0.0 0.0 0.00 0.00 0.20 41 1009.6
20260509020143 -17 357 0.0 0.0 0.00 0.00 0.20
20260509015318 10 360 0.0 0.0 0.00 0.00 0.20 40 1009.5
20260509014637 10 358 0.0 0.0 0.00 0.00 0.20 39 1009.4
20260509013957 10 358 0.0 0.0 0.00 0.00 0.20 37 1009.3
20260509013317 10 359 0.0 0.0 0.00 0.00 0.20 37 1009.3
20260509012638 10 358 0.0 0.0 0.00 0.00 0.20 38 1009.3
20260509011957 10 357 0.0 0.0 0.00 0.00 0.20 38 1009.2
20260509011318 -17 358 0.0 0.0 0.00 0.00 0.20
20260509010302 -17 357 0.0 0.0 0.00 0.00 0.20
20260509005511 -17 358 0.0 0.0 0.00 0.00 0.20
20260509004721 -17 358 0.0 0.0 0.00 0.00 0.20
20260509003931 -17 358 0.0 0.0 0.00 0.00 0.20
20260509003029 11 358 0.0 0.0 0.00 0.00 0.20 42 1009.1
20260509002348 11 356 0.0 0.0 0.00 0.00 0.20 42 1009.0
20260509001709 11 358 0.0 0.0 0.00 0.00 0.20 39 1008.9
20260509001028 11 357 0.0 0.0 0.00 0.00 0.20 36 1009.0
20260509000348 11 357 0.0 0.0 0.00 0.00 0.20 33 1008.9
20260508235708 11 356 0.0 0.0 0.00 0.00 0.20 33 1008.9
20260508235028 11 358 0.0 0.0 0.00 0.00 0.20 33 1008.9
20260508234348 11 358 0.0 0.0 0.00 0.00 0.20 32 1008.8
20260508233709 -17 357 0.0 0.0 0.00 0.00 0.20
20260508232919 11 356 0.0 0.0 0.00 0.00 0.20 30 1008.9
20260508232239 11 357 0.0 0.0 0.00 0.00 0.20 29 1008.9
20260508231600 12 359 0.0 0.0 0.00 0.00 0.20 34 1008.9
20260508230654 12 359 1.6 8.0 0.00 0.00 0.20 32 1008.9
20260508230015 -17 357 0.0 8.0 0.00 0.00 0.20
20260508225224 12 357 0.0 0.0 0.00 0.00 0.20 33 1008.9
20260508224543 12 357 0.0 6.4 0.00 0.00 0.20 37 1008.9
20260508223904 12 358 1.6 6.4 0.00 0.00 0.20 38 1009.0
20260508223226 -17 357 0.0 0.0 0.00 0.00 0.20
20260508222250 12 358 0.0 0.0 0.00 0.00 0.20 34 1009.1
20260508221610 13 357 0.0 0.0 0.00 0.00 0.20 37 1009.0
20260508220930 12 358 0.0 0.0 0.00 0.00 0.20 36 1009.1
20260508220251 -17 358 0.0 9.7 0.00 0.00 0.20
20260508215502 12 357 1.6 9.7 0.00 0.00 0.20 34 1009.1
20260508214824 -17 356 6.4 6.4 0.00 0.00 0.20
20260508214034 -17 358 6.4 12.9 0.00 0.00 0.20
20260508213245 12 356 8.0 12.9 0.00 0.00 0.20 36 1009.1